Weather History for Agadir Al Massira, Morocco

Change the Weather History Date:

Friday, April 5, 2013

  Actual Average Record
Temperature  
Mean Temperature 60 °F -  
Max Temperature 69 °F - - ()
Min Temperature 52 °F - - ()
Degree Days  
Heating Degree Days 4    
Growing Degree Days 10 (Base 50)    
Moisture  
Dew Point 53 °F    
Average Humidity 71    
Maximum Humidity 88    
Minimum Humidity 38    
Precipitation  
Precipitation 0.83 in - - ()
Sea Level Pressure  
Sea Level Pressure 29.98 in    
Wind  
Wind Speed 11 mph ()    
Max Wind Speed 24 mph    
Max Gust Speed -    
Visibility 5.7 miles    
Events Rain    
T = Trace of Precipitation, MM = Missing Value Source: Averaged Metar Reports

Daily Weather History Graph

Daily Weather History Graph

Search for Another Location

Airport:

Trip Planner

Search our weather history database for the weather conditions in past years. The results will help you decide how hot, cold, wet, or windy it might be!

Date:

Astronomy

Apr. 05, 2013 Rise Set
Actual Time 6:21 AM WET 6:58 PM WET
Civil Twilight 5:57 AM WET 7:23 PM WET
Nautical Twilight 5:29 AM WET 7:51 PM WET
Astronomical Twilight 5:00 AM WET 8:20 PM WET
Moon 3:00 AM WET (4/5) 2:27 PM WET (4/5)
Length of Visible Light 13h 25m
Length of Day
12h 37m
Waning Crescent, 25% of the Moon is Illuminated
Apr 5
Waning Crescent
Apr 10
New
Apr 18
First Quarter
Apr 25
Full
May 2
Last Quarter

Hourly Weather History & Observations

Time (WET) Temp. Dew Point Humidity Pressure Visibility Wind Dir Wind Speed Gust Speed Precip Events Conditions
12:00 AM 58 °F 54 °F 82% 29.92 in 6 mi SSW 6.9 mph - -   Partly Cloudy
12:00 AM 57.2 °F 53.6 °F 88% 29.92 in 6.2 mi SSW 6.9 mph - N/A   Scattered Clouds
1:00 AM 59.0 °F 55.4 °F 88% 29.89 in 6.2 mi SSW 6.9 mph - N/A   Scattered Clouds
2:00 AM 60.8 °F 55.4 °F 82% 29.86 in - SW 10.4 mph - N/A   Scattered Clouds
3:00 AM 59 °F 54 °F 80% 29.87 in 6 mi West 15.0 mph - -   Mostly Cloudy
3:00 AM 59.0 °F 55.4 °F 88% 29.86 in - West 15.0 mph - N/A   Scattered Clouds
4:00 AM 59.0 °F 55.4 °F 88% 29.86 in 6.2 mi WSW 11.5 mph - N/A   Mostly Cloudy
5:00 AM 57.2 °F 53.6 °F 88% 29.86 in 6.2 mi WSW 8.1 mph - N/A   Mostly Cloudy
6:00 AM 60 °F 55 °F 79% 29.91 in 6 mi West 11.5 mph - - Rain Light Rain
6:00 AM 59.0 °F 55.4 °F 88% 29.89 in 6.2 mi West 11.5 mph - N/A Rain Light Rain
7:00 AM 59.0 °F 55.4 °F 88% 29.92 in 6.2 mi West 8.1 mph - N/A Rain Light Rain
8:00 AM 59.0 °F 55.4 °F 88% 29.92 in 3.7 mi West 9.2 mph - N/A Rain Rain
9:00 AM 62 °F 57 °F 77% 29.99 in 5 mi West 15.0 mph - -   Partly Cloudy
9:00 AM 62.6 °F 57.2 °F 82% 29.98 in 5.0 mi West 15.0 mph - N/A   Scattered Clouds
10:00 AM 62.6 °F 57.2 °F 82% 30.01 in 5.0 mi West 10.4 mph - N/A   Scattered Clouds
11:00 AM 64.4 °F 55.4 °F 73% 30.01 in 5.0 mi West 20.7 mph - N/A   Scattered Clouds
12:00 PM 66 °F 55 °F 59% 30.02 in 5 mi West 18.4 mph - -   Partly Cloudy
12:00 PM 66.2 °F 55.4 °F 68% 30.01 in 5.0 mi West 18.4 mph - N/A   Scattered Clouds
1:00 PM 68.0 °F 53.6 °F 60% 30.01 in 5.0 mi West 24.2 mph - N/A   Scattered Clouds
2:00 PM 68.0 °F 53.6 °F 60% 30.01 in 6.2 mi West 23.0 mph - N/A   Partly Cloudy
3:00 PM 67 °F 54 °F 54% 30.01 in 6 mi West 19.6 mph - -   Partly Cloudy
3:00 PM 68.0 °F 55.4 °F 64% 30.01 in 6.2 mi West 19.6 mph - N/A   Partly Cloudy
4:00 PM 68.0 °F 53.6 °F 60% 30.01 in 6.2 mi West 18.4 mph - N/A   Partly Cloudy
5:00 PM 69.8 °F 50.0 °F 49% 30.01 in - West 20.7 mph - N/A   Unknown
6:00 PM 67 °F 47 °F 38% 30.04 in 6 mi NW 20.7 mph - -   Partly Cloudy
6:00 PM 66.2 °F 48.2 °F 52% 30.04 in 6.2 mi NW 20.7 mph - N/A   Scattered Clouds
7:00 PM 64.4 °F 46.4 °F 52% 30.06 in 6.2 mi NW 16.1 mph - N/A   Scattered Clouds
8:00 PM 60.8 °F 46.4 °F 59% 30.09 in 6.2 mi West 6.9 mph - N/A   Scattered Clouds
9:00 PM 58 °F 48 °F 60% 30.13 in - West 9.2 mph - -  
9:00 PM 57.2 °F 48.2 °F 72% 30.12 in - West 9.2 mph - N/A   Unknown
10:00 PM 57.2 °F 46.4 °F 67% 30.12 in - West 6.9 mph - N/A   Unknown
11:00 PM 55.4 °F 44.6 °F 67% 30.09 in 6.2 mi SW 6.9 mph - N/A   Unknown